Temp
74 74 71 72 72 73 74 72 70 64 66 71 71 73 73 75 75 75 73 73 72 71 71 71 71 71 72 73 73 72 72 72 72 72 72 72 73 74
75 73 73 71 72 72 73 73 71 69 66 69 72 72 74 77 76 74 74 73 71 70 70 70 70 70 70 71 71 71 71 71 71 71 71 71 71 71
75 73 73 72 71 72 72 72 71 70 67 69 71 72 71 71 72 72 74 71 70 70 70 69 69 69 69 69 69 69 70 70 70 70 71 70 70 70
74 73 73 77 71 71 71 71 72 71 70 68 69 70 71 70 71 71 75 79 72 72 69 69 68 67 67 67 67 67 67 68 68 68 68 69 69 69
76 75 75 74 73 75 69 71 70 72 70 68 68 69 70 70 69 71 71 71 74 73 68 68 68 67 66 65 65 64 64 64 64 64 64 65 66 67
77 78 78 75 75 75 71 72 71 69 69 68 68 68 69 70 71 70 67 69 71 76 73 71 69 68 67 65 64 64 62 61 61 61 61 61 62 63
79 78 79 79 75 75 77 74 73 70 68 71 66 67 68 66 70 68 70 70 68 70 69 70 68 68 69 66 69 67 65 63 61 60 60 59 59 59
78 79 80 75 75 71 72 74 76 75 74 72 75 72 74 71 70 71 72 64 63 68 68 69 69 67 69 68 68 67 64 63 63 61 60 59 59 58
80 80 80 82 75 77 70 70 71 71 75 78 74 74 76 76 72 69 73 70 64 66 67 65 68 67 70 72 66 65 63 64 62 62 61 59 58 57
82 81 80 80 80 78 77 75 75 75 74 77 78 79 74 77 76 77 73 68 67 67 66 63 67 68 68 68 66 65 63 62 62 62 60 58 57 55
82 82 81 80 75 68 77 75 74 76 72 68 71 71 68 69 72 72 67 66 62 64 67 65 66 67 67 66 64 64 62 62 62 61 60 58 56 54
83 83 70 78 69 64 76 77 74 75 76 73 70 67 67 71 69 76 68 65 63 63 66 65 64 63 59 65 62 62 62 58 57 57 57 57 55 53
82 82 83 65 62 60 64 80 78 79 74 75 75 75 69 68 69 70 72 71 64 63 67 66 63 61 60 61 62 60 60 59 58 58 55 54 54 54
81 84 83 64 59 59 60 68 65 66 79 74 74 71 68 68 68 69 70 70 69 67 66 66 63 66 62 59 60 59 59 59 59 58 58 58 56 54
83 79 69 62 58 60 60 62 61 71 76 75 73 71 70 70 69 68 69 69 67 67 67 67 69 65 64 59 58 57 58 57 57 57 55 57 57 55
69 73 70 68 67 69 64 62 66 72 74 73 75 74 71 68 67 67 66 66 65 65 65 66 67 64 61 60 59 55 56 56 56 55 56 55 55 54
69 72 73 74 73 74 68 67 66 67 70 72 72 72 70 67 67 67 67 66 64 64 63 64 64 63 62 60 56 55 54 54 55 55 54 52 52 54
64 69 71 73 73 74 73 73 68 67 69 70 71 72 70 67 67 66 67 65 64 63 63 65 64 59 57 59 61 55 53 54 54 54 53 51 50 53
68 69 70 70 71 70 70 70 69 70 70 69 70 71 71 69 66 67 65 64 63 63 63 65 63 60 53 52 56 59 55 54 53 52 52 51 50 51
65 64 64 66 68 68 68 68 68 68 69 68 66 66 65 64 64 64 64 63 63 61 61 63 62 61 59 57 55 56 55 55 53 52 51 50 52 56
63 63 64 64 64 64 64 65 65 65 65 64 63 63 64 64 62 62 63 58 60 62 62 62 64 63 59 57 54 53 54 54 57 54 52 49 48 47
60 61 62 63 63 62 62 62 63 62 62 62 62 63 63 64 63 63 62 61 62 60 61 59 61 61 56 54 51 52 54 54 52 55 56 56 50 45
61 62 62 62 61 62 62 61 62 62 62 63 64 63 63 62 63 62 62 63 61 59 58 56 55 56 55 54 53 52 52 53 52 52 53 55 55 55
MSLP
1018.29 1018.53 1018.85 1018.96 1019.05 1019.02 1019.02 1019.55 1020.25 1020.96 1020.95 1020.25 1020.31 1019.80 1019.93 1020.15 1020.40 1020.84 1021.15 1021.43 1021.77 1021.93 1022.07 1022.23 1022.50 1022.77 1022.95 1022.93 1023.03 1022.92 1022.78 1022.99 1022.92 1023.07 1023.03 1022.95 1022.78 1022.77
1017.92 1018.31 1018.56 1018.74 1018.92 1018.93 1018.74 1018.95 1019.47 1020.11 1020.76 1020.07 1019.86 1019.48 1019.45 1019.62 1019.92 1020.27 1020.73 1020.90 1021.11 1021.15 1021.39 1021.49 1021.90 1022.18 1022.30 1022.52 1022.56 1022.56 1022.49 1022.44 1022.73 1022.82 1022.93 1022.85 1022.77 1022.59
1017.73 1017.95 1018.19 1018.33 1018.55 1018.64 1018.69 1018.58 1019.01 1019.39 1019.99 1019.75 1019.43 1019.19 1019.55 1019.66 1019.94 1020.22 1020.35 1020.56 1020.60 1020.76 1020.94 1021.31 1021.67 1021.71 1021.83 1022.02 1022.13 1022.22 1022.27 1022.26 1022.39 1022.59 1022.69 1022.70 1022.58 1022.61
1017.02 1017.43 1017.57 1017.92 1018.09 1018.20 1018.41 1018.59 1018.62 1018.73 1019.20 1019.58 1019.34 1019.32 1019.32 1019.47 1019.51 1019.94 1019.75 1019.67 1020.00 1020.24 1020.59 1020.81 1020.78 1021.02 1021.22 1021.28 1021.58 1021.64 1021.99 1022.09 1022.42 1022.41 1022.53 1022.63 1022.61 1022.55
1016.04 1016.29 1016.76 1017.16 1017.35 1017.56 1017.96 1018.17 1018.20 1018.04 1018.38 1018.76 1018.93 1018.92 1018.99 1019.36 1019.62 1019.47 1019.48 1019.40 1019.60 1019.65 1019.95 1019.96 1020.08 1020.28 1020.54 1020.79 1021.01 1021.33 1021.65 1021.63 1022.04 1022.18 1022.20 1022.33 1022.30 1022.31
1015.09 1015.33 1015.67 1016.00 1016.25 1016.65 1017.10 1017.24 1017.52 1017.92 1017.88 1017.92 1018.18 1018.46 1018.71 1018.72 1018.98 1019.34 1019.62 1019.41 1019.32 1019.31 1019.37 1019.63 1019.97 1019.91 1019.91 1020.19 1020.48 1020.75 1021.18 1021.13 1021.44 1021.81 1021.81 1021.94 1021.99 1022.05
1014.05 1014.31 1014.45 1014.63 1015.04 1015.57 1016.18 1016.38 1016.71 1017.20 1017.24 1017.50 1017.75 1017.81 1017.91 1018.10 1018.14 1018.33 1018.83 1018.78 1018.99 1019.15 1019.47 1019.57 1019.98 1019.97 1019.70 1019.59 1019.56 1020.02 1020.71 1020.79 1020.82 1021.25 1021.53 1021.62 1021.66 1021.68
1013.14 1013.29 1013.52 1013.84 1014.09 1014.21 1014.41 1014.83 1015.13 1015.65 1015.92 1016.30 1016.29 1016.60 1016.38 1016.46 1016.97 1017.41 1017.74 1018.46 1018.73 1017.98 1018.59 1018.99 1019.15 1019.72 1019.42 1019.24 1018.94 1019.12 1019.76 1020.12 1020.30 1020.95 1021.22 1021.14 1021.27 1021.29
1011.91 1012.09 1012.41 1012.72 1013.22 1013.74 1014.11 1014.05 1014.18 1014.42 1014.23 1014.61 1014.98 1014.78 1014.85 1014.95 1015.75 1016.21 1016.55 1016.93 1017.40 1017.64 1018.07 1018.69 1018.64 1018.76 1018.61 1018.48 1018.44 1018.55 1018.87 1019.27 1019.74 1020.28 1020.61 1020.59 1020.75 1020.74
1010.52 1010.77 1011.20 1011.57 1011.95 1012.45 1012.89 1013.35 1013.71 1013.83 1013.70 1014.10 1013.79 1013.74 1013.83 1014.15 1014.58 1014.75 1015.34 1016.34 1016.78 1016.90 1017.50 1017.98 1018.48 1018.44 1018.15 1018.35 1018.41 1018.31 1018.45 1018.90 1019.14 1019.65 1020.12 1020.23 1020.20 1020.26
1009.60 1009.89 1010.15 1010.41 1010.62 1011.06 1011.65 1011.88 1012.07 1011.76 1012.01 1012.67 1012.54 1012.77 1013.20 1013.26 1013.17 1013.66 1014.57 1015.37 1016.10 1016.28 1015.89 1016.94 1016.84 1018.68 1018.42 1018.20 1018.25 1018.22 1018.14 1018.45 1018.66 1019.09 1019.61 1019.80 1019.72 1019.85
1008.92 1008.81 1008.96 1009.08 1009.57 1010.07 1010.50 1010.64 1010.54 1009.92 1011.05 1011.51 1011.98 1012.22 1012.08 1012.32 1012.60 1012.51 1013.41 1014.46 1015.14 1015.73 1015.59 1015.46 1015.82 1017.01 1018.68 1018.00 1018.01 1018.18 1018.17 1018.43 1018.57 1018.77 1019.11 1019.06 1019.06 1019.73
1007.61 1007.47 1007.67 1008.18 1008.84 1009.20 1009.41 1009.29 1008.31 1009.28 1009.85 1010.33 1010.50 1010.76 1011.26 1011.39 1011.44 1011.64 1012.02 1012.53 1013.17 1014.24 1014.12 1014.36 1015.61 1016.47 1017.65 1017.61 1017.80 1018.11 1018.18 1018.30 1018.47 1018.42 1018.36 1018.50 1018.74 1019.22
1006.32 1006.30 1006.58 1006.97 1007.34 1007.67 1008.03 1007.60 1007.77 1008.36 1008.62 1009.05 1009.27 1009.22 1009.34 1009.71 1010.30 1010.39 1010.19 1010.52 1010.68 1011.76 1013.41 1013.26 1014.38 1015.16 1016.28 1017.03 1017.50 1017.75 1017.95 1017.88 1017.92 1018.29 1018.17 1017.99 1018.35 1018.58
1005.18 1005.17 1005.44 1005.72 1005.92 1006.24 1006.16 1006.18 1006.58 1007.36 1007.47 1007.59 1007.40 1007.33 1007.63 1007.48 1008.62 1009.53 1009.57 1010.05 1011.47 1011.44 1012.01 1012.54 1012.89 1013.77 1014.56 1015.80 1016.82 1017.28 1017.64 1017.82 1017.74 1018.03 1018.11 1018.17 1018.18 1018.28
1004.71 1004.67 1004.69 1004.72 1004.73 1005.15 1005.69 1006.10 1006.44 1006.35 1006.21 1006.04 1005.90 1006.16 1006.55 1007.14 1007.44 1007.86 1008.68 1009.38 1009.98 1011.12 1011.33 1011.46 1012.59 1013.03 1013.69 1014.47 1015.87 1016.89 1016.97 1017.63 1017.73 1017.80 1017.85 1017.99 1017.94 1018.03
1004.46 1004.56 1004.46 1004.60 1004.69 1004.83 1005.14 1005.16 1005.36 1005.47 1005.38 1005.27 1005.55 1005.36 1005.52 1005.80 1006.03 1006.45 1007.45 1008.00 1008.66 1009.55 1010.21 1011.17 1011.86 1012.23 1012.94 1013.51 1015.06 1015.94 1016.57 1016.98 1017.29 1017.33 1017.61 1018.28 1018.21 1017.90
1004.30 1004.11 1003.84 1003.74 1003.76 1003.82 1004.00 1004.11 1004.36 1004.29 1004.28 1004.34 1004.29 1004.07 1004.21 1003.88 1003.85 1003.73 1003.94 1004.61 1007.02 1008.42 1009.56 1009.63 1011.18 1012.76 1013.67 1013.89 1013.85 1015.09 1015.93 1016.70 1016.82 1017.10 1017.41 1018.10 1018.45 1017.97
1003.71 1003.29 1003.20 1003.20 1003.14 1003.24 1003.34 1003.49 1003.57 1003.61 1003.63 1003.97 1003.78 1003.18 1002.91 1002.80 1002.31 1000.02 999.25 1001.60 1005.75 1006.94 1008.31 1009.81 1010.66 1011.81 1013.41 1013.84 1013.70 1014.08 1014.85 1015.66 1016.45 1017.15 1017.26 1017.55 1017.94 1017.60
1003.57 1003.42 1003.37 1003.35 1003.33 1003.20 1003.22 1003.29 1003.28 1003.00 1003.23 1003.22 1003.35 1003.03 1002.51 1002.36 1002.17 1001.44 1002.18 1003.56 1005.77 1006.03 1008.17 1009.62 1010.09 1010.86 1011.75 1012.93 1013.77 1013.68 1013.80 1014.43 1015.86 1016.31 1017.15 1016.91 1017.14 1016.99
1003.93 1003.88 1003.78 1003.60 1003.36 1003.28 1002.99 1002.89 1002.86 1002.88 1003.00 1003.13 1003.32 1003.28 1002.55 1002.35 1002.85 1003.93 1003.84 1004.75 1004.78 1006.28 1008.03 1008.80 1009.15 1009.85 1010.80 1012.26 1013.62 1013.97 1014.12 1013.71 1014.31 1015.01 1015.74 1016.59 1016.97 1017.22
1003.83 1003.76 1003.52 1003.42 1003.36 1003.26 1003.12 1003.04 1002.94 1002.92 1002.93 1003.10 1003.09 1003.16 1003.20 1003.05 1002.65 1002.74 1004.55 1005.25 1005.82 1006.88 1007.90 1008.45 1009.15 1010.03 1011.53 1012.34 1013.10 1013.69 1013.63 1013.89 1014.22 1014.21 1014.62 1015.01 1015.96 1016.55
1003.67 1003.45 1003.24 1003.05 1003.11 1003.35 1003.29 1003.38 1003.36 1003.17 1003.26 1003.35 1003.17 1002.80 1003.06 1003.19 1003.15 1003.82 1004.66 1005.61 1006.16 1006.96 1007.87 1008.79 1009.28 1010.39 1011.25 1011.69 1012.47 1013.18 1013.17 1014.04 1014.39 1014.53 1014.89 1014.61 1014.97 1015.32
Wind_Speed
6 5 3 3 2 3 3 4 5 2 3 4 3 5 5 7 10 10 9 14 14 14 13 13 11 9 9 10 9 8 7 7 6 5 3 2 3 5
5 6 5 3 4 3 3 3 3 5 2 4 5 4 6 6 11 10 9 12 15 16 16 15 12 11 10 10 10 10 8 7 5 4 3 3 4 4
5 7 8 6 5 4 3 3 4 4 4 3 4 4 2 6 6 5 6 6 7 16 16 12 12 13 11 11 11 10 10 8 7 6 6 5 4 4
9 8 9 7 7 6 3 6 5 5 4 6 4 3 4 4 7 7 5 5 5 10 14 15 15 13 12 12 11 11 8 6 6 7 5 5 6 6
11 11 10 10 10 8 6 6 4 4 5 4 5 3 4 3 3 4 5 5 4 7 12 17 14 13 13 12 12 10 9 7 7 6 5 6 7 7
11 14 14 13 14 12 9 9 6 5 4 4 4 4 3 5 3 5 4 4 5 4 7 8 11 13 13 12 12 10 10 10 9 8 7 6 7 6
14 13 15 17 18 15 10 11 10 7 5 6 4 3 4 3 10 5 6 5 5 4 3 3 4 4 6 11 9 11 11 10 11 9 7 8 6 6
16 15 13 16 18 21 22 19 17 14 14 8 9 8 13 8 6 8 9 4 5 5 6 4 5 4 5 5 11 13 14 13 11 8 9 8 8 8
18 16 15 12 16 15 18 19 20 18 21 15 12 14 13 12 8 9 12 8 4 3 4 4 3 4 3 4 12 14 13 13 12 12 11 9 11 10
19 19 17 17 15 17 16 16 17 15 16 12 15 13 9 9 11 10 11 6 3 2 3 4 2 4 2 4 10 13 14 14 14 13 12 12 12 11
16 17 18 18 19 19 17 18 17 19 15 18 20 15 12 12 10 8 6 8 4 5 6 5 5 3 3 4 5 12 14 15 13 12 13 13 13 6
16 18 18 20 17 19 19 17 19 19 17 14 13 11 14 15 18 12 9 9 4 3 6 7 5 7 3 4 5 5 4 6 9 11 13 10 11 3
14 14 13 16 17 18 21 19 23 15 16 15 14 13 11 10 10 10 12 10 6 3 5 5 3 4 4 3 2 4 5 3 5 5 12 11 10 7
15 13 13 14 19 22 19 26 19 14 12 12 13 13 14 14 11 13 13 12 12 10 7 6 5 8 6 4 4 2 3 3 4 3 3 2 2 7
14 16 15 14 18 19 24 25 22 14 14 14 15 16 15 16 14 10 11 8 6 6 6 6 6 6 5 5 5 3 3 2 2 3 2 3 2 1
12 12 12 15 15 11 7 10 10 12 14 16 15 14 11 11 12 12 13 12 10 8 6 9 10 8 4 5 5 4 4 4 2 2 3 1 1 1
7 7 9 9 10 10 5 6 7 8 12 13 13 14 13 13 14 14 13 11 12 10 9 9 8 7 5 9 4 4 4 3 3 4 4 1 1 3
3 5 8 9 10 9 10 9 7 9 10 11 13 14 14 14 17 15 16 17 15 11 11 11 9 4 2 2 5 5 3 3 3 4 3 4 1 3
4 4 6 6 6 5 5 6 8 7 8 9 12 14 15 15 22 23 20 13 8 11 10 10 11 8 4 5 3 7 6 5 4 2 3 3 4 4
2 2 2 3 3 3 3 5 6 6 6 3 3 5 3 3 5 5 11 11 12 10 8 9 11 10 9 9 5 3 10 7 4 5 3 1 2 2
1 0 1 3 3 4 4 5 5 4 4 4 3 4 3 7 7 4 7 9 10 9 10 10 11 13 6 6 4 1 3 6 8 6 5 4 3 1
1 2 3 4 4 4 4 4 3 3 4 4 3 4 3 4 8 12 8 9 7 5 4 4 8 9 4 4 5 5 3 1 5 4 9 12 7 4
4 4 4 3 3 3 3 2 2 3 3 2 3 3 5 5 7 9 8 7 8 6 5 4 4 3 4 5 6 4 5 4 4 3 4 11 9 7
Wind_Direction
200 202 206 248 284 235 161 144 149 140 251 261 192 214 174 172 182 182 188 199 199 201 205 211 218 225 238 253 264 269 268 280 282 292 302 317 327 334
187 187 206 225 246 264 212 174 155 156 188 211 233 185 183 180 185 179 192 197 204 206 207 212 208 219 229 243 251 255 244 246 244 242 240 262 296 306
185 187 205 209 222 236 235 179 190 156 165 285 220 209 141 164 161 181 190 192 208 213 215 207 209 220 223 229 238 237 233 219 218 211 232 266 268 279
193 191 202 202 228 218 218 236 188 192 156 207 219 178 153 196 170 182 203 203 191 209 213 207 210 208 215 216 225 225 219 213 218 223 262 272 280 285
198 202 198 192 212 218 205 219 219 205 174 169 203 189 209 165 181 206 203 224 198 205 195 211 208 204 212 213 218 211 204 197 216 233 254 265 274 276
202 206 206 198 208 209 210 215 214 208 192 183 192 192 164 208 175 195 225 229 228 193 211 199 210 219 214 216 222 208 196 188 205 224 237 253 266 280
217 213 212 211 205 201 203 219 208 207 207 208 199 183 197 174 195 190 203 211 232 177 214 209 211 241 244 236 226 207 197 187 201 211 230 253 271 281
220 223 222 212 211 201 204 207 208 206 217 209 219 213 214 202 176 193 200 162 213 200 169 228 159 227 247 225 211 191 186 197 195 192 225 241 256 257
219 221 224 222 210 216 219 215 213 209 216 209 212 213 217 209 181 197 200 199 177 208 126 210 175 215 237 244 187 188 183 182 186 199 217 223 238 243
222 222 221 224 217 209 214 222 227 224 225 220 225 223 223 207 202 201 195 167 96 131 125 174 215 233 187 231 206 182 175 184 190 203 217 223 236 238
228 227 224 226 219 198 210 218 222 227 213 212 226 218 199 198 175 147 161 154 171 203 183 160 147 251 189 217 220 201 183 196 194 205 225 227 240 234
235 236 222 228 214 194 211 215 225 225 218 208 222 232 211 205 188 185 166 173 155 178 231 162 170 142 283 234 192 205 211 219 203 219 234 234 246 209
237 241 239 215 219 207 209 224 231 221 223 220 221 224 213 206 200 193 186 185 173 209 208 131 131 126 198 181 168 197 186 210 202 226 241 248 259 185
238 242 242 214 207 212 210 229 230 202 223 213 220 216 207 205 204 194 189 186 185 162 172 136 160 185 170 157 170 174 176 194 155 204 202 119 214 214
238 241 236 216 219 222 221 218 218 222 226 223 222 223 215 207 203 207 197 174 187 173 171 167 172 162 151 146 160 175 124 268 188 157 112 132 178 193
246 244 232 226 238 227 227 231 234 233 232 233 234 233 216 213 207 199 195 186 180 190 199 180 191 158 138 138 139 173 168 172 219 153 138 150 267 117
229 240 249 244 247 241 219 206 206 218 225 234 249 236 227 207 204 196 204 185 198 177 184 188 179 159 147 143 137 176 173 185 209 167 108 190 301 129
176 217 230 235 240 242 239 234 221 222 235 242 247 240 241 224 207 199 181 181 179 180 190 174 155 115 83 10 150 161 157 175 177 164 126 118 304 272
234 223 223 229 238 233 230 229 243 244 243 252 246 246 242 236 227 205 164 140 177 184 172 171 162 153 138 173 244 195 157 164 152 133 145 151 183 250
14 21 11 354 317 270 247 252 248 243 251 287 336 2 306 23 4 133 132 153 188 151 152 165 165 172 167 180 177 226 169 138 155 155 191 182 253 22
117 156 253 266 262 262 246 235 221 212 195 168 177 232 92 108 112 75 150 171 148 150 162 171 182 168 111 84 79 110 224 204 158 160 168 145 178 189
296 268 276 283 272 275 286 287 273 233 193 187 209 210 211 203 157 138 159 157 149 136 129 121 129 129 103 132 166 167 176 208 233 146 150 160 159 201
262 259 275 256 260 268 254 263 307 310 284 254 213 132 136 125 126 113 133 146 129 122 148 120 96 106 141 142 141 172 157 190 184 171 255 211 191 147